Flag for U.S.A. Weather past 2 weeks in Santa Barbara, California, U.S.A.

Now
84 °F

Scattered clouds.


Feels Like: 84 °F
Forecast: 64 / 82 °F
Wind: 10 mph from West

Location: Santa Barbara Municipal Airport

Current Time: Aug 3, 2015 at 5:33:00 PM

Latest Report: Aug 3, 2015 at 4:53 PM


Visibility: 10 mi

Pressure: 29.83 "Hg

Humidity: 43%

Dew point: 59 °F

Location of Santa BarbaraLocation

Historic Weather in Santa Barbara — Graph

°F

Santa Barbara temperature yesterday

Maximum temperature yesterday: 81 °F (at 4:53 PM)
Minimum temperature yesterday: 63 °F (at 4:53 AM)
Average temperature yesterday: 72 °F

Past Weeks' High & Low Weather Summary

 TemperatureHumidityPressure
High86 °F (Jul 19, 3:53 PM)96% (Jul 21, 2:53 AM)30.08 "Hg (Jul 21, 2:53 AM)
Low58 °F (Jul 28, 5:53 AM)46% (Jul 19, 3:53 PM)29.80 "Hg (Aug 2, 6:53 PM)
Average70 °F77%29.93 "Hg
* Reported Jul 19 3:53 PM — Aug 3 3:53 PM, Santa Barbara, Weather by CustomWeather, © 2015

Note: Actual official high and low records may vary slightly from our data, if they occured in-between our weather recording intervals... More about our weather records

Advertising

Santa Barbara weather history for previous 24 hours

 ConditionsComfort  
Time TempWeatherWind HumidityBarometerVisibility
3:53 PM
Mon, Aug 3
83 °FScattered clouds.7 mph48%29.85 "Hg10 mi
2:53 PM81 °FScattered clouds.9 mph47%29.88 "Hg10 mi
1:53 PM80 °FScattered clouds.8 mph51%29.89 "Hg10 mi
12:53 PM79 °FSunny.7 mph52%29.90 "Hg10 mi
11:53 AM76 °FSunny.7 mph64%29.92 "Hg10 mi
10:53 AM74 °FSunny.7 mph69%29.90 "Hg10 mi
9:53 AM73 °FSunny.6 mph71%29.91 "Hg10 mi
8:53 AM72 °FSunny.8 mph68%29.90 "Hg10 mi
7:53 AM70 °FSunny.No wind64%29.89 "Hg10 mi
6:53 AM63 °FClear.No wind81%29.88 "Hg10 mi
5:53 AM62 °FClear.3 mph83%29.87 "Hg10 mi
4:53 AM63 °FClear.3 mph84%29.86 "Hg10 mi
3:53 AM64 °FClear.3 mph81%29.85 "Hg10 mi
2:53 AM68 °FClear.7 mph82%29.83 "Hg10 mi
1:53 AM69 °FClear.9 mph79%29.83 "Hg10 mi
12:53 AM70 °FClear.9 mph79%29.82 "Hg10 mi
11:53 PM
Sun, Aug 2
71 °FClear.10 mph76%29.82 "Hg10 mi
10:53 PM71 °FClear.No wind73%29.81 "Hg10 mi
9:53 PM70 °FClear.No wind76%29.80 "Hg10 mi
8:53 PM73 °FSunny.5 mph69%29.81 "Hg10 mi
7:53 PM72 °FPassing clouds.7 mph78%29.80 "Hg10 mi
6:53 PM77 °FPassing clouds.6 mph60%29.80 "Hg10 mi
5:53 PM75 °FScattered clouds.6 mph66%29.81 "Hg10 mi
Weather by CustomWeather, © 2015

See weather overviewHow to use our weather pages